Location: Castrojimeno
(41.3966°N, 3.8473°W)
Time: 21:27:14
(UTC+00:00)

USA 215 - Pass Details

Date: 15 May 2026
Orbit: 1098 x 1109 km, 123.0° (Epoch: 10 January)

Event Time Altitude Azimuth Distance (km) Brightness Sun altitude
Exits shadow 20:29:46 - 162° (SSE) 3,289 5.3 -10.7°
Reaches altitude 10° 20:30:46 10° 166° (SSE) 2,942 5.0 -10.9°
Maximum altitude 20:36:41 37° 232° (SW) 1,633 4.3 -11.7°
Drops below altitude 10° 20:42:40 10° 298° (WNW) 2,960 6.9 -12.6°
Sets 20:45:23 0° 307° (NW) 3,923 8.2 -13.0°
